Location: Musselshell
(46.5176°N, 108.0911°W)
Time: 11:34:21
(UTC+00:00)

EO-88 - Pass Details

Date: 28 June 2022
Orbit: 453 x 462 km, 97.3° (Epoch: 10 August)

Event Time Altitude Azimuth Distance (km) Brightness Sun altitude
Exits shadow 04:42:44 16° 175° (S) 1,310 ? -12.1°
Maximum altitude 04:45:27 71° 258° (WSW) 503 ? -12.4°
Drops below altitude 10° 04:48:58 10° 343° (NNW) 1,639 ? -12.7°
Sets 04:51:02 0° 346° (NNW) 2,520 ? -12.9°
